Dewpoint
32 33 35 35 36 36 35 35 35 35 35 36 37 38 38 39 38 38 37 40 35 32 29 31 32 33 31 32 29 31 34 33 32 29 28 27 26 24 22 22 19 15 14 13 18 20 18 22 20 15 20 28 27 26
31 33 35 35 35 36 35 35 35 35 34 34 36 37 38 38 37 39 36 39 40 35 32 38 36 37 36 36 32 34 33 34 33 31 30 26 25 27 25 21 21 17 19 18 19 20 24 30 23 28 28 27 27 27
32 34 35 35 35 35 35 34 34 34 36 35 34 35 37 37 38 39 37 38 38 34 33 34 32 37 40 39 39 31 34 36 34 33 29 26 18 21 20 20 20 22 23 19 21 27 28 30 30 29 28 27 28 28
34 34 34 35 36 36 35 35 35 35 35 34 34 36 36 36 36 38 36 37 38 34 27 27 39 37 40 40 41 39 37 39 35 32 28 28 21 23 19 21 19 22 24 24 26 29 29 29 29 28 28 28 25 23
34 34 35 35 34 34 35 35 35 35 35 35 35 36 35 36 36 37 38 37 39 35 28 31 36 37 39 41 39 38 39 37 35 30 28 24 23 23 25 23 22 25 23 21 18 28 26 28 29 28 26 24 22 20
34 34 35 35 35 35 35 35 36 36 36 37 36 38 39 38 37 37 31 38 39 40 33 26 34 35 36 37 39 38 40 36 33 32 28 24 25 21 20 20 22 27 27 25 22 30 30 30 28 25 23 21 20 19
34 34 34 34 34 35 35 35 35 36 36 37 37 37 37 38 37 32 32 37 40 41 32 28 29 34 36 36 34 37 37 33 32 30 24 21 21 20 15 15 23 27 29 31 31 30 28 27 25 21 19 20 20 18
34 34 34 35 35 35 35 35 36 36 37 38 38 39 39 38 37 35 36 42 41 36 35 28 27 30 34 31 31 34 32 30 27 24 21 20 23 21 12 25 31 31 31 30 30 29 29 23 20 19 18 17 17 16
39 38 37 36 35 35 35 36 36 38 37 38 40 39 37 36 34 33 40 44 41 35 30 29 25 25 34 31 32 31 28 24 27 19 19 20 16 9 16 30 30 30 29 29 27 25 22 21 18 16 16 15 15 15
40 40 40 39 38 38 37 36 37 37 41 40 38 34 30 33 39 40 38 34 35 36 33 28 31 27 31 28 26 22 24 20 16 23 26 18 16 25 27 32 31 30 28 27 25 23 20 18 17 16 15 15 14 14
42 41 42 40 39 39 39 38 39 40 39 34 32 31 38 40 36 34 30 28 29 27 30 29 31 27 31 22 24 25 21 23 16 21 20 20 17 22 30 31 30 29 28 28 27 25 23 20 17 16 16 15 14 14
40 42 42 39 39 39 40 40 40 36 33 34 37 39 38 34 31 27 24 26 26 23 27 25 25 28 28 29 20 25 23 22 12 23 18 18 23 26 29 29 28 27 27 26 25 23 21 19 18 17 16 15 15 14
38 38 38 39 39 40 40 40 35 37 40 39 33 31 31 28 22 21 18 22 24 26 27 27 24 26 26 27 24 23 21 21 24 19 16 18 25 28 27 26 26 25 23 22 20 19 19 18 18 17 16 16 14 13
37 37 38 39 39 40 40 36 40 37 32 26 25 23 21 21 21 19 20 23 26 27 27 26 26 24 26 23 23 21 23 22 19 17 16 20 26 26 25 25 24 23 21 20 20 19 18 18 17 16 15 14 12 10
39 39 39 39 39 38 39 39 34 33 27 21 19 14 18 21 26 29 29 28 28 28 27 25 25 26 25 23 22 23 21 19 19 16 18 23 25 24 24 24 23 21 19 19 19 17 16 15 15 13 12 12 10 9
39 37 37 37 37 39 38 36 32 31 28 27 26 25 28 27 27 27 27 27 29 27 25 24 23 20 18 21 19 19 18 14 14 20 23 25 24 24 23 22 21 20 18 17 16 15 14 14 13 12 10 10 9 9
37 38 38 36 37 37 36 28 28 27 26 26 27 30 30 30 28 28 29 28 29 24 22 21 15 11 22 18 17 20 16 17 25 24 25 24 24 23 21 20 18 17 16 14 14 14 12 12 11 11 10 9 9 8
36 39 37 37 35 33 31 29 27 26 25 27 27 28 30 29 29 29 30 29 26 26 24 21 25 21 19 17 19 23 25 24 23 23 23 24 23 21 20 18 17 16 14 13 13 12 12 12 12 10 9 9 8 7
35 34 34 34 32 29 26 27 28 25 26 28 29 28 30 30 28 29 29 28 28 28 27 25 24 22 22 25 24 25 26 26 23 21 19 19 20 19 18 17 16 15 14 13 13 13 12 13 12 12 11 11 9 8
32 33 33 33 30 27 25 26 29 26 25 27 29 28 28 28 28 26 26 26 25 23 21 22 22 24 25 27 29 27 27 25 23 21 19 19 18 17 17 17 15 14 13 13 13 13 13 12 12 12 12 12 9 9
29 31 32 31 29 29 28 27 26 28 29 28 29 28 27 24 24 26 23 24 22 23 22 26 26 28 30 29 28 27 26 25 24 23 22 19 18 18 17 16 16 15 14 13 13 13 13 12 12 12 11 11 10 11
30 32 26 27 26 25 25 27 27 28 28 28 26 25 23 18 19 23 23 21 22 24 26 26 27 28 28 28 28 27 25 25 25 24 22 21 20 19 18 18 17 16 15 15 15 14 14 14 14 14 12 11 11 11
29 27 23 22 20 20 22 25 22 23 22 24 23 17 16 16 21 25 19 22 23 25 27 26 26 27 28 28 27 27 26 25 24 24 24 24 23 22 22 21 22 21 20 20 19 16 15 15 14 15 16 13 12 12
26 23 21 20 19 19 21 21 24 22 21 19 16 13 17 19 22 21 15 20 23 25 25 25 26 26 26 26 26 27 28 26 25 25 25 24 24 24 24 24 24 23 23 21 19 18 17 15 15 15 14 14 12 13
13 17 17 18 20 17 17 18 18 17 17 18 11 10 17 21 15 14 10 19 23 24 24 25 24 24 25 24 24 26 27 27 26 25 26 25 24 24 24 24 24 24 22 21 19 18 17 17 16 15 14 14 14 12
10 18 18 18 19 14 15 12 13 16 18 16 16 19 20 15 6 -3 16 20 21 23 24 24 22 21 22 22 23 23 24 26 26 25 26 26 25 24 23 22 22 22 22 22 20 18 17 16 16 15 14 14 14 13
12 17 19 23 23 21 19 19 19 16 10 2 15 20 15 0 -3 13 24 23 24 22 22 23 22 22 22 22 21 21 23 25 25 24 25 26 26 25 24 22 22 21 21 22 21 20 18 17 16 15 15 14 14 13
21 21 19 19 20 19 16 16 15 14 16 18 18 8 1 -6 7 23 25 24 22 22 22 22 22 22 22 22 23 22 22 23 24 24 23 22 21 22 22 21 21 21 21 21 21 20 19 18 16 16 15 14 13 11
19 19 17 16 18 19 19 19 18 20 21 19 14 12 18 22 23 24 24 23 23 24 23 22 20 21 21 22 22 22 22 23 23 21 20 19 19 20 18 18 19 19 19 20 21 20 20 18 17 16 15 13 11 9
18 18 18 15 16 16 18 20 20 22 21 22 22 22 21 21 21 24 24 24 23 23 23 23 22 23 22 21 20 20 21 21 21 21 19 18 18 16 16 18 19 18 18 20 19 19 18 14 12 11 11 9 8 7
18 17 16 16 17 18 19 20 21 22 22 21 21 20 18 19 21 19 20 21 24 21 22 22 22 23 22 21 20 19 19 20 20 20 20 20 16 14 16 16 16 17 19 19 17 15 14 13 13 11 10 8 7 6
15 16 17 16 17 16 17 17 17 17 17 20 20 21 20 19 17 18 14 18 23 24 24 24 22 22 23 22 22 21 20 19 17 17 18 18 17 15 14 14 15 16 17 17 16 15 14 13 11 10 9 7 5 4
15 14 15 16 16 15 15 17 16 16 15 16 17 18 20 19 17 14 11 12 17 20 19 19 19 19 20 21 22 22 22 19 17 16 17 18 19 17 15 15 15 15 15 14 14 13 12 11 10 8 7 5 4 2
Wind_Speed
24 22 23 23 22 21 20 19 19 18 17 15 14 14 17 18 18 13 5 11 12 4 10 10 10 7 6 6 9 5 8 5 6 17 9 6 6 11 8 10 11 13 15 10 7 10 17 8 6 9 4 4 14 16
23 24 23 23 22 21 21 20 19 18 16 15 14 12 14 15 14 11 3 5 9 7 5 2 13 10 13 15 2 4 5 6 11 7 8 6 4 5 8 6 1 11 10 12 16 12 2 0 2 2 12 17 12 16
23 23 24 23 24 22 20 19 18 17 17 16 15 13 12 12 12 11 5 3 6 8 9 9 12 16 18 18 15 8 5 6 8 8 8 3 5 8 11 9 7 4 5 7 9 5 4 3 5 6 12 13 16 20
24 25 24 24 23 23 22 21 20 19 18 18 17 16 14 14 14 14 7 6 7 3 7 10 3 5 9 17 21 16 21 16 8 7 5 7 6 6 7 5 8 7 15 10 3 1 7 3 5 14 17 18 21 17
27 27 28 26 25 25 24 23 22 21 21 21 20 19 19 16 15 10 7 6 10 7 3 5 5 7 9 14 22 18 22 27 11 6 5 7 4 7 3 5 7 9 10 14 11 19 7 12 15 18 22 20 20 24
30 30 31 30 29 28 26 25 23 22 22 22 21 18 15 16 15 6 4 12 17 12 3 6 2 5 6 19 21 13 15 10 6 5 2 3 0 4 8 7 3 8 10 9 6 18 6 20 16 13 20 19 16 19
35 35 34 33 32 31 29 27 25 25 23 23 21 18 15 17 13 8 6 3 15 6 1 4 5 3 7 4 2 7 10 5 4 5 5 4 3 5 4 6 8 9 8 16 24 26 16 15 13 18 22 20 19 18
42 42 40 37 36 35 32 30 28 26 25 24 21 22 20 18 9 13 19 17 15 5 2 5 6 5 4 1 4 2 5 3 2 5 3 4 5 3 3 4 12 13 18 18 7 8 17 23 23 21 21 23 21 18
47 52 53 48 43 36 33 31 30 26 21 23 28 21 8 6 6 7 7 6 3 4 4 4 3 4 4 3 4 4 2 4 2 2 2 1 2 5 5 17 20 23 11 18 15 23 24 27 24 22 22 18 21 17
48 51 52 53 50 45 39 32 26 21 23 31 26 6 4 8 7 14 3 2 5 7 5 4 1 2 1 0 3 3 4 3 3 0 2 1 3 3 4 12 17 15 25 25 25 15 20 21 23 23 21 15 18 18
17 31 37 55 49 46 41 36 30 36 36 11 6 6 5 18 4 2 4 4 3 4 6 5 4 2 5 4 3 4 3 1 3 3 4 2 3 5 13 18 15 17 20 13 17 19 23 29 25 22 17 16 17 17
41 39 46 58 49 46 42 40 45 20 12 13 9 8 5 4 3 4 4 3 5 4 5 7 8 4 3 2 4 5 3 1 2 2 3 3 5 9 20 21 17 18 17 14 18 22 19 20 20 20 19 18 16 15
48 52 51 49 47 46 44 47 28 26 25 8 4 4 4 2 4 6 6 4 4 7 7 7 9 3 2 7 5 3 3 1 2 2 3 5 6 13 17 18 17 15 16 18 17 17 20 19 18 21 19 15 18 17
42 44 46 48 47 47 46 33 34 17 6 4 5 6 6 6 7 9 10 7 5 6 13 14 8 4 2 3 2 3 1 1 1 3 6 5 14 17 15 16 23 19 18 20 20 19 21 20 18 15 17 19 19 19
43 44 45 45 45 40 35 29 15 5 4 2 2 4 6 3 3 2 1 3 2 13 15 11 7 4 4 3 2 4 2 3 6 6 3 4 15 18 18 17 19 19 19 19 19 20 21 21 20 17 16 16 17 19
42 41 34 32 32 25 18 11 6 3 3 3 4 2 1 4 3 2 5 12 3 14 11 8 4 4 4 5 3 5 5 6 3 3 3 12 17 16 17 16 16 17 18 19 18 19 20 20 20 19 15 14 16 19
22 10 26 24 22 21 9 4 3 4 3 3 2 1 0 4 3 1 5 7 4 11 4 4 6 4 6 3 3 5 5 3 6 5 5 11 19 19 18 18 19 19 20 19 19 18 16 16 19 18 17 13 15 16
16 15 9 19 16 6 1 3 4 5 5 5 3 4 2 4 4 5 3 1 6 5 2 2 5 3 4 4 3 1 2 3 4 3 8 11 15 16 17 21 18 19 19 18 19 18 17 19 19 16 16 16 14 12
13 11 12 10 8 5 3 4 4 4 4 3 3 4 3 4 7 4 7 8 8 6 7 3 4 1 1 1 2 3 2 3 4 4 6 8 12 17 17 16 16 16 19 19 18 17 15 14 13 15 15 16 16 14
13 20 15 17 5 4 4 4 3 4 3 2 3 5 3 3 3 6 11 8 5 4 5 4 1 2 2 3 4 2 7 11 12 12 9 8 9 14 15 16 15 15 15 13 12 13 13 10 10 13 14 15 17 18
12 9 10 6 5 8 5 2 4 3 3 4 3 3 3 3 5 5 5 5 5 3 3 1 2 3 3 4 7 9 9 9 4 5 10 11 8 13 13 12 14 13 13 14 14 13 13 14 14 13 16 17 16 16
3 6 4 6 5 3 5 4 4 3 3 2 2 3 4 3 3 3 1 6 3 1 2 3 4 3 6 7 8 8 11 13 13 14 16 18 11 11 11 13 14 14 13 14 14 15 14 12 13 14 14 15 13 12
3 4 4 4 4 4 2 2 2 2 3 2 1 3 2 1 1 2 3 1 1 1 1 5 8 6 10 9 12 9 9 13 12 11 11 10 10 11 10 12 10 12 11 11 11 12 14 13 14 14 12 11 12 11
5 5 4 3 4 3 1 2 2 3 3 2 3 4 3 3 1 2 3 3 3 3 3 7 8 9 8 7 7 6 5 9 11 9 11 12 11 9 10 10 10 9 7 8 11 11 12 13 13 11 12 13 13 14
3 5 3 4 3 2 3 3 2 2 2 1 2 1 2 1 2 2 2 4 8 8 8 8 6 5 8 6 5 5 4 8 9 9 9 7 8 8 7 6 8 8 9 10 11 13 13 12 13 14 14 14 15 15
4 4 2 1 1 0 5 4 5 5 5 4 3 1 1 3 3 4 3 9 10 13 14 13 13 9 7 6 7 5 3 4 6 4 8 10 11 9 10 10 10 9 12 11 12 14 14 14 15 16 16 15 14 14
3 3 3 2 2 1 1 1 3 2 4 5 6 5 3 4 5 3 2 4 4 8 14 14 14 12 8 9 5 1 3 4 5 5 5 6 4 2 5 6 9 9 10 14 13 14 16 16 16 16 15 12 13 14
3 5 3 6 2 4 1 0 1 3 2 1 7 6 6 5 4 2 2 1 4 11 12 9 8 7 5 6 8 10 9 9 11 10 9 7 6 2 1 3 3 6 10 13 13 11 12 14 15 15 15 15 13 12
4 8 3 3 2 3 2 2 1 1 3 1 2 3 2 1 3 2 2 7 9 12 13 12 8 10 12 11 9 6 9 8 8 5 3 3 3 3 1 3 5 7 9 11 10 10 11 12 13 14 13 12 10 9
6 5 3 3 2 1 1 2 2 3 1 1 0 1 2 2 5 4 7 8 7 7 8 10 12 11 11 11 9 6 3 5 3 3 3 4 5 4 4 5 8 9 10 11 11 12 14 14 14 11 12 12 12 11
5 3 3 2 3 2 2 5 4 3 2 1 1 2 3 2 2 4 4 4 6 13 14 12 10 9 10 8 5 4 3 6 7 6 5 4 3 5 6 6 7 9 10 11 13 12 13 11 12 14 14 14 14 13
3 1 3 4 3 3 4 2 2 2 2 2 3 3 3 2 4 4 4 3 5 10 7 9 10 9 6 5 7 7 5 5 9 9 11 10 7 7 8 8 8 9 10 10 10 12 12 13 13 13 14 15 14 13
4 2 3 3 3 3 2 2 2 3 3 2 3 4 6 5 5 3 3 5 1 5 7 6 6 5 4 3 1 3 4 4 4 5 9 10 10 11 11 10 10 10 11 11 10 11 11 12 12 13 14 15 14 12
Wind_Direction
229 227 223 219 218 217 216 216 217 221 223 224 224 225 218 226 212 193 205 185 197 221 251 260 273 230 258 282 219 174 151 162 175 209 197 199 188 192 194 180 164 170 172 194 171 207 249 190 146 189 180 113 156 149
226 225 221 219 218 218 219 215 216 219 220 219 220 217 210 208 199 172 178 184 195 230 274 251 234 238 204 185 178 344 297 161 182 192 204 160 185 158 163 196 119 190 189 184 185 210 212 349 230 123 157 156 158 139
229 224 220 218 216 217 216 215 217 218 218 217 220 213 208 199 184 165 157 173 199 236 260 240 232 228 215 198 175 228 265 254 212 180 171 184 195 168 166 211 164 212 165 153 153 207 191 176 131 139 138 133 131 131
228 225 222 218 215 215 215 215 216 217 215 216 218 211 209 210 207 182 181 198 241 216 228 265 134 199 204 197 202 199 228 263 275 173 159 213 197 189 186 155 182 194 156 141 108 139 119 151 159 138 121 116 114 117
229 227 224 223 217 214 213 213 214 214 214 212 213 216 211 215 215 203 191 211 247 268 266 286 314 242 207 205 217 220 219 227 234 188 185 207 144 124 137 141 191 187 161 173 207 191 162 172 157 140 134 136 131 127
233 228 223 220 218 215 212 212 211 215 211 205 206 210 200 204 197 114 312 240 215 240 231 270 241 233 270 247 225 211 209 161 156 142 190 250 248 132 162 185 192 174 178 163 162 152 140 140 132 130 130 132 128 129
234 231 227 221 217 214 212 211 214 210 212 206 201 210 213 203 183 170 213 297 188 180 190 257 252 210 236 127 1 110 155 155 132 113 184 201 136 137 144 176 163 161 136 120 120 110 108 139 151 130 122 115 110 108
235 233 228 221 215 210 208 207 206 211 206 196 200 210 203 204 202 233 258 300 164 163 268 278 281 321 24 202 108 128 106 133 99 154 162 167 135 189 169 157 124 123 118 119 111 110 140 123 120 120 122 125 124 128
233 224 220 215 212 208 201 201 203 197 208 218 204 177 161 195 213 228 197 229 144 179 208 229 261 286 0 19 86 44 47 84 354 75 79 84 115 217 188 157 154 150 148 139 110 116 127 133 135 136 137 138 138 144
239 227 214 203 199 195 193 196 199 205 184 145 138 125 186 189 200 144 249 80 204 202 201 241 145 269 217 346 74 114 43 108 132 68 107 134 197 253 201 156 147 144 133 128 120 125 129 138 148 153 161 154 153 153
220 203 191 182 175 177 182 187 185 152 141 133 131 165 135 129 122 120 231 214 186 207 200 175 195 155 7 81 103 33 112 74 128 167 159 172 242 201 154 146 152 149 148 145 157 159 162 156 155 153 151 147 147 151
86 116 134 141 152 160 164 162 150 141 144 155 126 114 104 122 138 188 227 264 227 216 168 161 151 126 41 13 81 17 94 71 123 146 152 232 226 174 157 152 150 147 141 133 141 142 141 144 147 146 147 150 148 139
100 108 118 127 135 140 142 144 141 128 122 103 99 115 149 136 156 195 198 213 221 176 177 166 127 95 92 43 71 71 71 98 129 165 234 225 174 158 150 140 135 134 129 125 122 123 127 128 132 142 142 138 138 142
102 109 117 126 130 134 138 137 136 133 120 141 124 142 195 181 213 199 203 195 201 155 144 125 91 91 54 71 67 91 51 109 164 236 236 214 179 161 148 142 139 148 142 138 136 133 134 136 134 132 139 145 146 152
103 108 115 120 127 138 141 128 89 58 77 118 168 177 200 215 226 266 255 147 144 137 121 106 60 73 41 99 47 111 135 233 222 234 239 196 154 148 146 145 140 142 143 142 142 142 141 140 141 140 144 144 145 148
106 108 112 118 129 118 115 107 38 91 88 101 65 128 209 184 188 175 137 132 95 126 98 80 111 141 205 141 145 195 181 226 256 239 273 143 144 143 141 138 139 141 143 142 141 140 140 145 148 145 137 145 153 156
84 97 98 93 104 104 107 40 63 59 67 53 48 41 27 71 114 128 146 135 143 128 120 130 151 183 123 152 210 192 219 264 309 308 163 154 146 142 137 137 140 140 141 141 137 137 135 131 130 138 152 160 158 165
90 106 122 124 121 135 76 37 71 55 49 19 49 8 19 36 102 89 95 79 138 110 82 93 127 156 181 191 225 271 213 66 43 91 103 117 125 131 138 142 141 141 141 140 140 138 141 147 156 163 158 159 154 158
77 59 57 95 147 134 87 45 46 88 45 354 340 360 37 59 42 52 75 69 79 90 109 61 81 76 288 298 289 290 173 135 143 86 70 75 120 133 130 129 134 137 143 147 150 155 159 161 167 162 160 162 170 172
49 41 29 30 61 79 72 41 43 80 77 349 27 31 41 41 6 41 53 46 58 60 58 51 81 301 274 292 314 145 126 129 133 115 97 89 104 126 136 142 144 138 134 132 133 140 149 150 164 166 168 172 173 182
16 3 11 46 49 59 83 47 63 76 93 58 17 52 35 36 66 48 23 4 66 61 100 111 66 2 31 69 100 102 119 144 148 148 149 141 129 130 129 128 132 137 148 156 166 175 176 186 179 175 177 187 191 190
349 0 47 30 75 61 74 28 104 116 101 120 67 68 55 34 32 20 10 58 81 127 146 141 118 89 92 81 102 106 122 108 99 99 103 123 136 140 145 149 146 157 167 178 181 190 198 194 180 180 187 197 194 194
24 42 52 42 80 60 118 6 81 45 120 152 64 97 103 153 149 89 79 100 144 149 155 112 106 93 101 97 102 97 98 109 110 112 123 115 128 134 145 164 165 166 178 195 188 190 197 189 186 188 191 185 186 188
40 54 47 57 61 113 350 68 58 95 99 97 123 140 171 169 116 122 167 188 186 156 133 133 128 109 94 101 92 91 85 114 117 116 134 132 140 162 171 178 187 195 188 167 179 182 180 183 180 186 186 185 190 194
100 11 38 57 32 108 113 121 100 95 132 156 140 143 171 15 144 180 210 193 180 174 157 144 126 136 165 147 131 109 83 140 144 152 172 153 134 132 165 184 198 199 166 166 181 186 187 181 184 185 187 189 194 198
79 0 42 45 19 189 174 160 174 161 147 160 189 173 120 149 174 226 225 181 181 190 186 183 178 166 181 189 183 196 193 139 124 142 177 175 171 173 193 201 213 230 201 194 180 188 189 186 185 189 195 198 198 196
71 26 347 3 308 114 100 71 123 148 172 175 177 170 154 187 220 221 169 175 172 191 184 176 174 170 166 185 196 113 102 123 110 121 110 141 134 158 181 203 227 244 185 190 190 191 193 191 192 192 191 187 196 198
48 27 17 330 21 21 168 318 219 203 215 199 154 190 188 204 182 161 165 153 132 121 125 131 157 173 159 148 138 128 103 101 99 95 91 78 59 63 196 198 193 175 179 183 187 183 186 188 186 181 183 191 196 197
27 347 337 354 19 46 40 13 331 346 339 255 231 199 150 70 356 39 85 125 122 116 121 125 109 108 104 102 99 102 135 142 138 153 207 266 319 266 335 180 174 165 160 162 164 170 176 175 175 177 178 178 173 159
348 355 353 1 2 344 288 343 342 330 300 260 247 79 64 46 5 13 121 129 141 154 151 143 143 135 135 134 126 107 137 154 121 154 205 246 258 257 224 195 179 167 154 149 135 119 112 113 112 117 127 134 142 142
319 344 323 304 281 266 319 332 303 291 267 215 207 147 167 164 57 36 72 65 115 133 137 143 133 139 142 138 148 163 209 214 213 215 215 215 226 217 205 192 171 157 155 155 151 150 146 145 146 148 152 155 155 151
317 340 339 305 303 296 318 278 278 273 263 248 199 134 138 132 226 202 3 349 159 162 167 171 161 176 177 182 192 190 171 187 200 209 203 202 202 188 173 160 151 144 148 149 148 150 155 154 155 157 157 156 155 155
290 283 239 269 285 304 291 301 267 288 234 246 236 206 179 191 242 191 357 19 32 152 137 121 112 107 92 84 204 240 236 215 174 177 191 195 184 167 161 156 149 142 138 134 134 139 144 146 147 148 148 149 150 149